Weather in Verkhniy Tashtyp

Russia / Republic of Khakassia     52°48′44″N   89°26′37″E
temp.,
°C
wind,
m/s
gust,
m/s
humid.,
%
clouds,
%
prec.,
mm/h
press.,
hPa
HPBL,
m
11 may, tue
tue1101:00+3ene41179100 0.0 1016418
04:00+1ene2689100 0.0 1015236
07:00+2ne2682100 0.0 1015466
10:00+6ene2463100 0.0 1014829
13:00+10ene3453100 0.0 10131336
16:00+11e2451100 0.0 10121564
19:00+11ene245893 0.0 1013308
22:00+8w1169100 0.0 101514
12 may, wed
wed1201:00+6wsw1180100 0.0 101517
04:00+5wsw1184100 0.0 101510
07:00+7nnw0175100 0.0 101575
10:00+11ene2452100 0.0 1014877
13:00+14ene4643100 0.0 10131672
16:00+15ene4639100 0.0 10122042
19:00+12ene2650100 0.0 1013299
22:00+9nnw116692 0.0 101515
13 may, thu
thu1301:00+7nw1174100 0.0 101711
04:00+6sw1177100 0.0 101613
07:00+7wsw1176100 0.0 101788
10:00+8sw2374100 0.1 1017747
13:00+13wsw2355100 0.3 10141457
16:00+15w334784 0.4 10131788
19:00+13w356386 0.8 1013930
22:00+8wsw228740 0.1 101433
14 may, fri
fri1401:00+6wsw219263 0.1 101418
04:00+5wsw1192100 0.0 101418
07:00+7wsw118398 0.0 101399
10:00+11wsw3465100 0.0 1012922
13:00+8wsw5985100 0.6 1015985
16:00+8wsw41087100 0.8 10161316
19:00+7wsw378397 1.8 1019987
22:00+5sw379487 3.3 1023700
15 may, sat
sat1501:00+4sw249578 3.9 1024147
04:00+2wsw239641 0.1 102660
07:00+5wsw298984 0.1 1026392
10:00+10wsw695970 0.0 10251506
13:00+12w6850100 0.0 10231593
16:00+13w585395 0.0 10231394
19:00+13wsw485858 0.0 10221128
22:00+7wsw228272 0.0 102523